Terminal Aerodrome Forecast
Issued by NWS

Home | Current Version | Previous Version | Text Only | Print | Product List | Glossary On
Versions: 1 2 3 4 5 6 7 8 9 10 11 12 13 14 15 16 17 18 19 20 21 22 23 24 25 26 27 28 29 30 31 32 33 34 35 36 37 38 39 40 41 42 43 44 45 46 47 48 49 50
000
FTUS43 KMKX 291737
TAFUES
TAF
KUES 291737Z 2918/3018 06009KT P6SM VCSH OVC012
     FM292000 06009KT P6SM VCSH OVC025
     FM292200 06008KT P6SM VCSH OVC035
     FM300300 03006KT P6SM VCSH BKN040
     FM301500 06006KT P6SM SCT040=

USA.gov is the U.S. government's official web portal to all federal, state and local government web resources and services.